Time,TemperatureF,DewpointF,PressureIn,WindDirection,WindDirectionDegrees,WindSpeedMPH,WindSpeedGustMPH,Humidity,HourlyPrecipIn,Conditions,Clouds,dailyrainin,SoftwareType,DateUTC
2013-08-12 00:02:00,65.8,38.8,23.40,SSE,158,3.0,5.0,37,0.00,,,0.01,meteohub,2013-08-12 06:02:00,
2013-08-12 00:07:00,66.2,37.8,23.40,SE,135,2.0,4.0,35,0.00,,,0.00,meteohub,2013-08-12 06:07:00,
2013-08-12 00:12:00,66.4,37.9,23.40,SE,135,2.0,3.0,35,0.00,,,0.00,meteohub,2013-08-12 06:12:00,
2013-08-12 00:17:00,66.4,38.7,23.41,SE,135,2.0,3.0,36,0.00,,,0.00,meteohub,2013-08-12 06:17:00,
2013-08-12 00:22:00,66.0,38.3,23.41,SE,135,3.0,3.0,36,0.00,,,0.00,meteohub,2013-08-12 06:22:00,
2013-08-12 00:27:00,66.4,38.7,23.40,SE,135,2.0,4.0,36,0.00,,,0.00,meteohub,2013-08-12 06:27:00,
2013-08-12 00:32:00,65.7,39.4,23.40,SE,135,3.0,4.0,38,0.00,,,0.00,meteohub,2013-08-12 06:32:00,
2013-08-12 00:38:00,65.1,38.8,23.41,South,180,2.0,4.0,38,0.00,,,0.00,meteohub,2013-08-12 06:38:00,
2013-08-12 00:43:00,64.8,37.9,23.41,SE,135,2.0,3.0,37,0.00,,,0.00,meteohub,2013-08-12 06:43:00,
2013-08-12 00:48:00,64.9,38.1,23.40,South,180,2.0,3.0,37,0.00,,,0.00,meteohub,2013-08-12 06:48:00,
2013-08-12 00:53:00,65.3,38.3,23.40,South,180,2.0,3.0,37,0.00,,,0.00,meteohub,2013-08-12 06:53:00,
2013-08-12 00:58:00,65.7,37.9,23.40,East,90,2.0,4.0,36,0.00,,,0.00,meteohub,2013-08-12 06:58:00,
2013-08-12 01:03:00,66.0,38.3,23.40,East,90,3.0,4.0,36,0.00,,,0.00,meteohub,2013-08-12 07:03:00,
2013-08-12 01:08:00,66.2,37.8,23.41,SSE,158,2.0,4.0,35,0.00,,,0.00,meteohub,2013-08-12 07:08:00,
2013-08-12 01:13:00,66.2,37.8,23.41,South,180,4.0,4.0,35,0.00,,,0.00,meteohub,2013-08-12 07:13:00,
2013-08-12 01:18:00,66.2,37.8,23.41,SE,135,2.0,4.0,35,0.00,,,0.00,meteohub,2013-08-12 07:18:00,
2013-08-12 01:23:00,66.0,38.3,23.40,SE,135,2.0,4.0,36,0.00,,,0.00,meteohub,2013-08-12 07:23:00,
2013-08-12 01:28:00,65.8,38.1,23.41,SE,135,3.0,4.0,36,0.00,,,0.00,meteohub,2013-08-12 07:28:00,
2013-08-12 01:34:00,65.5,37.8,23.40,SE,135,3.0,3.0,36,0.00,,,0.00,meteohub,2013-08-12 07:34:00,
2013-08-12 01:39:00,65.3,38.3,23.40,NE,45,3.0,4.0,37,0.00,,,0.00,meteohub,2013-08-12 07:39:00,
2013-08-12 01:44:00,65.3,38.3,23.41,North,0,3.0,4.0,37,0.00,,,0.00,meteohub,2013-08-12 07:44:00,
2013-08-12 01:49:00,65.3,38.3,23.41,SE,135,3.0,3.0,37,0.00,,,0.00,meteohub,2013-08-12 07:49:00,
2013-08-12 01:54:00,65.3,38.3,23.40,North,0,3.0,4.0,37,0.00,,,0.00,meteohub,2013-08-12 07:54:00,
2013-08-12 01:59:00,64.9,38.7,23.40,SSE,158,3.0,4.0,38,0.00,,,0.00,meteohub,2013-08-12 07:59:00,
2013-08-12 02:04:00,64.8,38.5,23.40,South,180,2.0,4.0,38,0.00,,,0.00,meteohub,2013-08-12 08:04:00,
2013-08-12 02:09:00,63.0,38.8,23.40,South,180,2.0,4.0,41,0.00,,,0.00,meteohub,2013-08-12 08:09:00,
2013-08-12 02:14:00,63.1,38.5,23.40,SE,135,4.0,4.0,40,0.00,,,0.00,meteohub,2013-08-12 08:14:00,
2013-08-12 02:19:00,64.0,37.9,23.40,East,90,2.0,4.0,38,0.00,,,0.00,meteohub,2013-08-12 08:19:00,
2013-08-12 02:24:00,64.4,38.3,23.39,North,0,2.0,4.0,38,0.00,,,0.00,meteohub,2013-08-12 08:24:00,
2013-08-12 02:30:00,64.4,38.3,23.40,SE,135,3.0,4.0,38,0.00,,,0.00,meteohub,2013-08-12 08:30:00,
2013-08-12 02:35:00,64.4,38.3,23.39,SE,135,2.0,4.0,38,0.00,,,0.00,meteohub,2013-08-12 08:35:00,
2013-08-12 02:40:00,64.0,37.9,23.39,East,90,2.0,4.0,38,0.00,,,0.00,meteohub,2013-08-12 08:40:00,
2013-08-12 02:45:00,63.7,38.3,23.39,SE,135,2.0,4.0,39,0.00,,,0.00,meteohub,2013-08-12 08:45:00,
2013-08-12 02:50:00,63.5,38.1,23.39,SE,135,2.0,2.0,39,0.00,,,0.00,meteohub,2013-08-12 08:50:00,
2013-08-12 02:55:00,63.3,38.7,23.39,South,180,0.0,2.0,40,0.00,,,0.00,meteohub,2013-08-12 08:55:00,
2013-08-12 03:00:00,63.1,38.5,23.39,NE,45,2.0,2.0,40,0.00,,,0.00,meteohub,2013-08-12 09:00:00,
2013-08-12 03:05:00,62.6,38.5,23.39,South,180,2.0,2.0,41,0.00,,,0.00,meteohub,2013-08-12 09:05:00,
2013-08-12 03:10:00,62.1,38.7,23.39,SE,135,2.0,4.0,42,0.00,,,0.00,meteohub,2013-08-12 09:10:00,
2013-08-12 03:15:00,62.1,39.4,23.39,SE,135,4.0,5.0,43,0.00,,,0.00,meteohub,2013-08-12 09:15:00,
2013-08-12 03:20:00,62.2,39.4,23.39,SE,135,2.0,5.0,43,0.00,,,0.00,meteohub,2013-08-12 09:20:00,
2013-08-12 03:26:00,62.1,38.7,23.39,North,0,4.0,5.0,42,0.00,,,0.00,meteohub,2013-08-12 09:26:00,
2013-08-12 03:31:00,62.4,39.0,23.39,South,180,2.0,5.0,42,0.00,,,0.00,meteohub,2013-08-12 09:31:00,
2013-08-12 03:36:00,62.6,38.5,23.39,North,0,0.0,4.0,41,0.00,,,0.00,meteohub,2013-08-12 09:36:00,
2013-08-12 03:41:00,62.2,38.8,23.39,SE,135,1.0,4.0,42,0.00,,,0.00,meteohub,2013-08-12 09:41:00,
2013-08-12 03:46:00,61.9,39.2,23.39,South,180,2.0,2.0,43,0.00,,,0.00,meteohub,2013-08-12 09:46:00,
2013-08-12 03:51:00,61.3,38.1,23.39,South,180,2.0,3.0,42,0.00,,,0.00,meteohub,2013-08-12 09:51:00,
2013-08-12 03:56:00,61.2,38.5,23.39,SE,135,1.0,3.0,43,0.00,,,0.00,meteohub,2013-08-12 09:56:00,
2013-08-12 04:01:00,61.0,37.8,23.38,South,180,2.0,3.0,42,0.00,,,0.00,meteohub,2013-08-12 10:01:00,
2013-08-12 04:06:00,61.0,37.8,23.39,South,180,2.0,3.0,42,0.00,,,0.00,meteohub,2013-08-12 10:06:00,
2013-08-12 04:11:00,61.2,37.9,23.39,SE,135,2.0,3.0,42,0.00,,,0.00,meteohub,2013-08-12 10:11:00,
2013-08-12 04:16:00,61.2,38.5,23.39,SSE,158,4.0,4.0,43,0.00,,,0.00,meteohub,2013-08-12 10:16:00,
2013-08-12 04:22:00,61.0,38.8,23.39,SE,135,2.0,4.0,44,0.00,,,0.00,meteohub,2013-08-12 10:22:00,
2013-08-12 04:27:00,60.4,39.6,23.39,East,90,2.0,4.0,46,0.00,,,0.00,meteohub,2013-08-12 10:27:00,
2013-08-12 04:32:00,60.1,39.2,23.39,South,180,2.0,4.0,46,0.00,,,0.00,meteohub,2013-08-12 10:32:00,
2013-08-12 04:37:00,59.5,39.4,23.38,South,180,0.0,3.0,47,0.00,,,0.00,meteohub,2013-08-12 10:37:00,
2013-08-12 04:42:00,58.8,39.2,23.39,SE,135,0.0,2.0,48,0.00,,,0.00,meteohub,2013-08-12 10:42:00,
2013-08-12 04:47:00,58.1,39.0,23.39,SE,135,2.0,2.0,49,0.00,,,0.00,meteohub,2013-08-12 10:47:00,
2013-08-12 04:52:00,57.2,38.7,23.39,South,180,0.0,2.0,50,0.00,,,0.00,meteohub,2013-08-12 10:52:00,
2013-08-12 04:57:00,56.5,39.0,23.39,South,180,0.0,2.0,52,0.00,,,0.00,meteohub,2013-08-12 10:57:00,
2013-08-12 05:02:00,56.3,39.4,23.39,East,90,0.0,2.0,53,0.00,,,0.00,meteohub,2013-08-12 11:02:00,
2013-08-12 05:07:00,55.9,39.6,23.39,South,180,0.0,0.0,54,0.00,,,0.00,meteohub,2013-08-12 11:07:00,
2013-08-12 05:12:00,55.6,39.7,23.39,SE,135,0.0,1.0,55,0.00,,,0.00,meteohub,2013-08-12 11:12:00,
2013-08-12 05:17:00,54.9,39.0,23.40,SE,135,2.0,2.0,55,0.00,,,0.00,meteohub,2013-08-12 11:17:00,
2013-08-12 05:22:00,54.5,39.2,23.40,South,180,1.0,2.0,56,0.00,,,0.00,meteohub,2013-08-12 11:22:00,
2013-08-12 05:27:00,54.7,39.4,23.40,SE,135,4.0,4.0,56,0.00,,,0.00,meteohub,2013-08-12 11:27:00,
2013-08-12 05:32:00,56.5,40.5,23.40,SE,135,3.0,4.0,55,0.00,,,0.00,meteohub,2013-08-12 11:32:00,
2013-08-12 05:37:00,57.2,39.7,23.40,SE,135,2.0,4.0,52,0.00,,,0.00,meteohub,2013-08-12 11:37:00,
2013-08-12 05:42:00,57.6,40.1,23.40,SE,135,2.0,4.0,52,0.00,,,0.00,meteohub,2013-08-12 11:42:00,
2013-08-12 05:47:00,57.6,40.1,23.39,NE,45,0.0,4.0,52,0.00,,,0.00,meteohub,2013-08-12 11:47:00,
2013-08-12 05:52:00,57.0,40.1,23.40,South,180,1.0,3.0,53,0.00,,,0.00,meteohub,2013-08-12 11:52:00,
2013-08-12 05:57:00,56.3,39.9,23.40,SE,135,2.0,2.0,54,0.00,,,0.00,meteohub,2013-08-12 11:57:00,
2013-08-12 06:02:00,55.9,39.6,23.40,SE,135,1.0,2.0,54,0.00,,,0.00,meteohub,2013-08-12 12:02:00,
2013-08-12 06:07:00,55.9,39.6,23.40,SE,135,1.0,2.0,54,0.00,,,0.00,meteohub,2013-08-12 12:07:00,
2013-08-12 06:12:00,55.0,38.7,23.40,SE,135,0.0,2.0,54,0.00,,,0.00,meteohub,2013-08-12 12:12:00,
2013-08-12 06:17:00,54.7,38.8,23.40,NW,315,0.0,1.0,55,0.00,,,0.00,meteohub,2013-08-12 12:17:00,
2013-08-12 06:22:00,54.5,38.7,23.40,South,180,0.0,1.0,55,0.00,,,0.00,meteohub,2013-08-12 12:22:00,
2013-08-12 06:27:00,54.0,38.7,23.41,South,180,0.0,1.0,56,0.00,,,0.00,meteohub,2013-08-12 12:27:00,
2013-08-12 06:32:00,53.4,39.0,23.41,South,180,0.0,1.0,58,0.00,,,0.00,meteohub,2013-08-12 12:32:00,
2013-08-12 06:37:00,53.1,39.2,23.41,SE,135,1.0,2.0,59,0.00,,,0.00,meteohub,2013-08-12 12:37:00,
2013-08-12 06:42:00,52.9,39.0,23.41,NE,45,0.0,2.0,59,0.00,,,0.00,meteohub,2013-08-12 12:42:00,
2013-08-12 06:47:00,52.9,39.4,23.41,NE,45,0.0,2.0,60,0.00,,,0.00,meteohub,2013-08-12 12:47:00,
2013-08-12 06:52:00,53.1,40.5,23.41,NNE,23,2.0,2.0,62,0.00,,,0.00,meteohub,2013-08-12 12:52:00,
2013-08-12 06:57:00,53.1,40.5,23.41,South,180,2.0,2.0,62,0.00,,,0.00,meteohub,2013-08-12 12:57:00,
2013-08-12 07:02:00,53.8,39.4,23.42,North,0,2.0,2.0,58,0.00,,,0.00,meteohub,2013-08-12 13:02:00,
2013-08-12 07:07:00,55.2,39.4,23.42,North,0,0.0,2.0,55,0.00,,,0.00,meteohub,2013-08-12 13:07:00,
2013-08-12 07:12:00,56.1,40.1,23.42,South,180,1.0,2.0,55,0.00,,,0.00,meteohub,2013-08-12 13:12:00,
2013-08-12 07:17:00,57.6,40.1,23.42,NE,45,2.0,2.0,52,0.00,,,0.00,meteohub,2013-08-12 13:17:00,
2013-08-12 07:22:00,60.3,41.0,23.42,South,180,1.0,2.0,49,0.00,,,0.00,meteohub,2013-08-12 13:22:00,
2013-08-12 07:27:00,62.4,40.8,23.42,SE,135,3.0,4.0,45,0.00,,,0.00,meteohub,2013-08-12 13:27:00,
2013-08-12 07:32:00,65.3,43.3,23.42,North,0,1.0,4.0,45,0.00,,,0.00,meteohub,2013-08-12 13:32:00,
2013-08-12 07:37:00,69.6,45.0,23.42,North,0,0.0,4.0,41,0.00,,,0.00,meteohub,2013-08-12 13:37:00,
2013-08-12 07:42:00,72.5,41.7,23.42,SW,225,2.0,3.0,33,0.00,,,0.00,meteohub,2013-08-12 13:42:00,
2013-08-12 07:47:00,75.2,40.8,23.42,SE,135,1.0,2.0,29,0.00,,,0.00,meteohub,2013-08-12 13:47:00,
2013-08-12 07:53:00,77.4,40.8,23.42,South,180,2.0,2.0,27,0.00,,,0.00,meteohub,2013-08-12 13:53:00,
2013-08-12 07:58:00,79.0,39.2,23.42,SE,135,2.0,2.0,24,0.00,,,0.00,meteohub,2013-08-12 13:58:00,
2013-08-12 08:03:00,79.2,40.3,23.43,NE,45,2.0,2.0,25,0.00,,,0.00,meteohub,2013-08-12 14:03:00,
2013-08-12 08:08:00,79.2,40.3,23.42,NE,45,2.0,3.0,25,0.00,,,0.00,meteohub,2013-08-12 14:08:00,
2013-08-12 08:13:00,77.4,40.8,23.42,East,90,3.0,3.0,27,0.00,,,0.00,meteohub,2013-08-12 14:13:00,
2013-08-12 08:18:00,76.3,39.9,23.42,East,90,2.0,3.0,27,0.00,,,0.00,meteohub,2013-08-12 14:18:00,
2013-08-12 08:23:00,76.6,40.1,23.43,NE,45,2.0,4.0,27,0.00,,,0.00,meteohub,2013-08-12 14:23:00,
2013-08-12 08:28:00,76.3,40.8,23.42,SE,135,2.0,4.0,28,0.00,,,0.00,meteohub,2013-08-12 14:28:00,
2013-08-12 08:33:00,72.0,42.1,23.42,SE,135,3.0,4.0,34,0.00,,,0.00,meteohub,2013-08-12 14:33:00,
2013-08-12 08:38:00,67.8,45.1,23.43,ESE,113,3.0,4.0,44,0.00,,,0.00,meteohub,2013-08-12 14:38:00,
2013-08-12 08:44:00,65.3,43.3,23.43,SE,135,3.0,4.0,45,0.00,,,0.00,meteohub,2013-08-12 14:44:00,
2013-08-12 08:49:00,66.7,42.3,23.43,SE,135,4.0,4.0,41,0.00,,,0.00,meteohub,2013-08-12 14:49:00,
2013-08-12 08:54:00,68.4,40.3,23.43,NW,315,2.0,4.0,36,0.00,,,0.00,meteohub,2013-08-12 14:54:00,
2013-08-12 08:59:00,69.4,41.4,23.43,East,90,3.0,5.0,36,0.00,,,0.00,meteohub,2013-08-12 14:59:00,
2013-08-12 09:04:00,70.9,41.2,23.43,SE,135,6.0,6.0,34,0.00,,,0.00,meteohub,2013-08-12 15:04:00,
2013-08-12 09:09:00,71.1,42.8,23.43,South,180,6.0,6.0,36,0.00,,,0.00,meteohub,2013-08-12 15:09:00,
2013-08-12 09:14:00,71.8,41.9,23.43,SE,135,4.0,6.0,34,0.00,,,0.00,meteohub,2013-08-12 15:14:00,
2013-08-12 09:19:00,73.9,40.5,23.43,SE,135,4.0,6.0,30,0.00,,,0.00,meteohub,2013-08-12 15:19:00,
2013-08-12 09:24:00,74.8,41.4,23.43,ESE,113,3.0,6.0,30,0.00,,,0.00,meteohub,2013-08-12 15:24:00,
2013-08-12 09:29:00,74.8,41.4,23.43,SE,135,5.0,6.0,30,0.00,,,0.00,meteohub,2013-08-12 15:29:00,
2013-08-12 09:34:00,73.8,39.6,23.42,SE,135,5.0,6.0,29,0.00,,,0.00,meteohub,2013-08-12 15:34:00,
2013-08-12 09:40:00,73.0,40.6,23.43,SE,135,5.0,5.0,31,0.00,,,0.00,meteohub,2013-08-12 15:40:00,
2013-08-12 09:45:00,73.4,40.1,23.43,SE,135,4.0,5.0,30,0.00,,,0.00,meteohub,2013-08-12 15:45:00,
2013-08-12 09:50:00,73.0,40.6,23.43,NW,315,2.0,5.0,31,0.00,,,0.00,meteohub,2013-08-12 15:50:00,
2013-08-12 09:55:00,72.3,39.9,23.43,SE,135,2.0,5.0,31,0.00,,,0.00,meteohub,2013-08-12 15:55:00,
2013-08-12 10:00:00,72.1,39.9,23.43,East,90,2.0,5.0,31,0.00,,,0.00,meteohub,2013-08-12 16:00:00,
2013-08-12 10:05:00,72.1,39.9,23.43,East,90,2.0,5.0,31,0.00,,,0.00,meteohub,2013-08-12 16:05:00,
2013-08-12 10:10:00,73.0,40.6,23.44,NNW,338,4.0,4.0,31,0.00,,,0.00,meteohub,2013-08-12 16:10:00,
2013-08-12 10:15:00,74.5,41.9,23.43,SE,135,4.0,4.0,31,0.00,,,0.00,meteohub,2013-08-12 16:15:00,
2013-08-12 10:20:00,76.5,41.0,23.44,NE,45,3.0,4.0,28,0.00,,,0.00,meteohub,2013-08-12 16:20:00,
2013-08-12 10:25:00,75.0,40.6,23.43,SE,135,4.0,6.0,29,0.00,,,0.00,meteohub,2013-08-12 16:25:00,
2013-08-12 10:31:00,73.4,40.1,23.43,SE,135,2.0,6.0,30,0.00,,,0.00,meteohub,2013-08-12 16:31:00,
2013-08-12 10:36:00,72.5,40.1,23.43,SE,135,3.0,6.0,31,0.00,,,0.00,meteohub,2013-08-12 16:36:00,
2013-08-12 10:41:00,71.6,40.1,23.44,South,180,4.0,4.0,32,0.00,,,0.00,meteohub,2013-08-12 16:41:00,
2013-08-12 10:46:00,71.1,40.5,23.44,West,270,1.0,4.0,33,0.00,,,0.00,meteohub,2013-08-12 16:46:00,
2013-08-12 10:51:00,70.7,40.1,23.44,South,180,3.0,4.0,33,0.00,,,0.00,meteohub,2013-08-12 16:51:00,
2013-08-12 10:56:00,70.5,40.8,23.44,South,180,2.0,4.0,34,0.00,,,0.00,meteohub,2013-08-12 16:56:00,
2013-08-12 11:01:00,70.3,40.6,23.44,SE,135,2.0,3.0,34,0.00,,,0.00,meteohub,2013-08-12 17:01:00,
2013-08-12 11:06:00,70.2,40.5,23.44,North,0,2.0,3.0,34,0.00,,,0.00,meteohub,2013-08-12 17:06:00,
2013-08-12 11:11:00,70.0,40.3,23.44,NE,45,2.0,3.0,34,0.00,,,0.00,meteohub,2013-08-12 17:11:00,
2013-08-12 11:16:00,69.6,39.9,23.44,NW,315,2.0,3.0,34,0.00,,,0.00,meteohub,2013-08-12 17:16:00,
2013-08-12 11:22:00,69.4,39.9,23.44,East,90,2.0,4.0,34,0.00,,,0.00,meteohub,2013-08-12 17:22:00,
2013-08-12 11:27:00,69.4,40.6,23.44,East,90,2.0,4.0,35,0.00,,,0.00,meteohub,2013-08-12 17:27:00,
2013-08-12 11:32:00,69.4,40.6,23.44,East,90,3.0,4.0,35,0.00,,,0.00,meteohub,2013-08-12 17:32:00,
2013-08-12 11:37:00,69.4,40.6,23.44,North,0,8.0,8.0,35,0.00,,,0.00,meteohub,2013-08-12 17:37:00,
2013-08-12 11:42:00,69.3,39.7,23.44,ESE,113,4.0,8.0,34,0.00,,,0.00,meteohub,2013-08-12 17:42:00,
2013-08-12 11:47:00,69.4,34.9,23.44,West,270,2.0,8.0,28,0.00,,,0.00,meteohub,2013-08-12 17:47:00,
2013-08-12 11:52:00,69.8,34.3,23.44,SE,135,5.0,8.0,27,0.00,,,0.00,meteohub,2013-08-12 17:52:00,
2013-08-12 11:57:00,70.0,34.5,23.44,SE,135,15.0,15.0,27,0.00,,,0.00,meteohub,2013-08-12 17:57:00,
2013-08-12 12:02:00,69.8,31.5,23.43,SE,135,5.0,15.0,24,0.00,,,0.00,meteohub,2013-08-12 18:02:00,
2013-08-12 12:07:00,69.8,31.5,23.44,SE,135,5.0,15.0,24,0.00,,,0.00,meteohub,2013-08-12 18:07:00,
2013-08-12 12:12:00,71.6,30.7,23.44,North,0,1.0,15.0,22,0.00,,,0.00,meteohub,2013-08-12 18:12:00,
2013-08-12 12:17:00,73.2,29.7,23.43,South,180,4.0,5.0,20,0.00,,,0.00,meteohub,2013-08-12 18:17:00,
2013-08-12 12:22:00,75.4,35.1,23.43,North,0,3.0,5.0,23,0.00,,,0.00,meteohub,2013-08-12 18:22:00,
2013-08-12 12:27:00,77.5,36.9,23.43,East,90,3.0,4.0,23,0.00,,,0.00,meteohub,2013-08-12 18:27:00,
2013-08-12 12:32:00,77.9,33.6,23.43,SE,135,2.0,4.0,20,0.00,,,0.00,meteohub,2013-08-12 18:32:00,
2013-08-12 12:37:00,77.4,31.8,23.43,East,90,2.0,4.0,19,0.00,,,0.00,meteohub,2013-08-12 18:37:00,
2013-08-12 12:42:00,76.1,36.7,23.43,SE,135,2.0,3.0,24,0.00,,,0.00,meteohub,2013-08-12 18:42:00,
2013-08-12 12:47:00,75.0,36.9,23.43,North,0,1.0,3.0,25,0.00,,,0.00,meteohub,2013-08-12 18:47:00,
2013-08-12 12:53:00,74.1,37.0,23.44,SE,135,3.0,3.0,26,0.00,,,0.00,meteohub,2013-08-12 18:53:00,
2013-08-12 12:58:00,73.4,38.3,23.44,SE,135,2.0,3.0,28,0.00,,,0.00,meteohub,2013-08-12 18:58:00,
2013-08-12 13:03:00,73.0,40.6,23.44,SE,135,2.0,4.0,31,0.00,,,0.00,meteohub,2013-08-12 19:03:00,
2013-08-12 13:08:00,72.7,40.3,23.44,North,0,1.0,4.0,31,0.00,,,0.00,meteohub,2013-08-12 19:08:00,
2013-08-12 13:13:00,72.5,40.1,23.44,East,90,2.0,4.0,31,0.00,,,0.00,meteohub,2013-08-12 19:13:00,
2013-08-12 13:18:00,72.3,41.5,23.44,NE,45,2.0,4.0,33,0.00,,,0.00,meteohub,2013-08-12 19:18:00,
2013-08-12 13:23:00,72.3,40.8,23.44,SE,135,2.0,4.0,32,0.00,,,0.00,meteohub,2013-08-12 19:23:00,
2013-08-12 13:28:00,72.1,39.9,23.44,South,180,2.0,3.0,31,0.00,,,0.00,meteohub,2013-08-12 19:28:00,
2013-08-12 13:33:00,71.8,41.2,23.44,NE,45,2.0,3.0,33,0.00,,,0.00,meteohub,2013-08-12 19:33:00,
2013-08-12 13:38:00,71.4,43.7,23.43,SE,135,3.0,4.0,37,0.00,,,0.00,meteohub,2013-08-12 19:38:00,
2013-08-12 13:43:00,71.4,41.5,23.43,NNE,23,4.0,4.0,34,0.00,,,0.00,meteohub,2013-08-12 19:43:00,
2013-08-12 13:49:00,71.2,41.4,23.44,South,180,7.0,7.0,34,0.00,,,0.00,meteohub,2013-08-12 19:49:00,
2013-08-12 13:54:00,71.4,42.3,23.44,NE,45,5.0,8.0,35,0.00,,,0.00,meteohub,2013-08-12 19:54:00,
2013-08-12 13:59:00,71.2,40.6,23.44,SSE,158,8.0,8.0,33,0.00,,,0.00,meteohub,2013-08-12 19:59:00,
2013-08-12 14:04:00,71.1,40.5,23.44,NW,315,4.0,8.0,33,0.00,,,0.00,meteohub,2013-08-12 20:04:00,
2013-08-12 14:09:00,70.2,39.7,23.44,SE,135,5.0,8.0,33,0.00,,,0.00,meteohub,2013-08-12 20:09:00,
2013-08-12 14:14:00,69.6,39.9,23.44,SE,135,4.0,8.0,34,0.00,,,0.00,meteohub,2013-08-12 20:14:00,
2013-08-12 14:19:00,69.3,38.8,23.43,SE,135,4.0,5.0,33,0.00,,,0.00,meteohub,2013-08-12 20:19:00,
2013-08-12 14:24:00,68.9,39.4,23.43,SE,135,5.0,6.0,34,0.00,,,0.00,meteohub,2013-08-12 20:24:00,
2013-08-12 14:29:00,68.7,38.5,23.43,SE,135,3.0,6.0,33,0.00,,,0.00,meteohub,2013-08-12 20:29:00,
2013-08-12 14:34:00,68.7,39.2,23.43,NNE,23,2.0,6.0,34,0.00,,,0.00,meteohub,2013-08-12 20:34:00,
2013-08-12 14:39:00,68.7,39.2,23.43,South,180,4.0,5.0,34,0.00,,,0.00,meteohub,2013-08-12 20:39:00,
2013-08-12 14:45:00,68.7,38.5,23.43,South,180,6.0,6.0,33,0.00,,,0.00,meteohub,2013-08-12 20:45:00,
2013-08-12 14:50:00,69.4,39.9,23.43,SE,135,6.0,6.0,34,0.00,,,0.00,meteohub,2013-08-12 20:50:00,
2013-08-12 14:55:00,71.2,39.9,23.43,SSE,158,7.0,7.0,32,0.00,,,0.00,meteohub,2013-08-12 20:55:00,
2013-08-12 15:00:00,71.4,38.3,23.43,SE,135,4.0,6.0,30,0.00,,,0.00,meteohub,2013-08-12 21:00:00,
2013-08-12 15:05:00,71.4,38.3,23.43,SE,135,6.0,10.0,30,0.00,,,0.00,meteohub,2013-08-12 21:05:00,
2013-08-12 15:10:00,71.6,37.6,23.43,North,0,4.0,10.0,29,0.00,,,0.00,meteohub,2013-08-12 21:10:00,
2013-08-12 15:15:00,71.4,38.3,23.43,SE,135,8.0,9.0,30,0.00,,,0.00,meteohub,2013-08-12 21:15:00,
2013-08-12 15:20:00,70.7,38.7,23.43,South,180,7.0,9.0,31,0.00,,,0.00,meteohub,2013-08-12 21:20:00,
2013-08-12 15:25:00,70.3,39.0,23.43,SE,135,13.0,13.0,32,0.00,,,0.00,meteohub,2013-08-12 21:25:00,
2013-08-12 15:30:00,69.3,38.8,23.43,South,180,9.0,13.0,33,0.00,,,0.00,meteohub,2013-08-12 21:30:00,
2013-08-12 15:36:00,68.5,39.0,23.43,SE,135,4.0,13.0,34,0.00,,,0.00,meteohub,2013-08-12 21:36:00,
2013-08-12 15:41:00,68.5,39.7,23.43,South,180,8.0,13.0,35,0.00,,,0.00,meteohub,2013-08-12 21:41:00,
2013-08-12 15:46:00,68.9,39.4,23.43,SSE,158,8.0,13.0,34,0.00,,,0.00,meteohub,2013-08-12 21:46:00,
2013-08-12 15:51:00,69.1,40.3,23.43,South,180,9.0,11.0,35,0.00,,,0.00,meteohub,2013-08-12 21:51:00,
2013-08-12 15:56:00,69.3,40.5,23.43,South,180,11.0,12.0,35,0.00,,,0.00,meteohub,2013-08-12 21:56:00,
2013-08-12 16:02:00,69.3,39.7,23.43,South,180,8.0,12.0,34,0.00,,,0.00,meteohub,2013-08-12 22:02:00,
2013-08-12 16:07:00,69.3,39.7,23.42,South,180,8.0,12.0,34,0.00,,,0.00,meteohub,2013-08-12 22:07:00,
2013-08-12 16:12:00,68.9,39.4,23.42,SE,135,6.0,11.0,34,0.00,,,0.00,meteohub,2013-08-12 22:12:00,
2013-08-12 16:17:00,69.1,40.3,23.43,SE,135,8.0,8.0,35,0.00,,,0.00,meteohub,2013-08-12 22:17:00,
2013-08-12 16:22:00,69.3,39.7,23.42,South,180,5.0,12.0,34,0.00,,,0.00,meteohub,2013-08-12 22:22:00,
2013-08-12 16:27:00,69.4,39.9,23.42,SE,135,4.0,12.0,34,0.00,,,0.00,meteohub,2013-08-12 22:27:00,
2013-08-12 16:32:00,69.8,39.4,23.42,South,180,5.0,9.0,33,0.00,,,0.00,meteohub,2013-08-12 22:32:00,
2013-08-12 16:37:00,69.4,39.9,23.42,SE,135,5.0,8.0,34,0.00,,,0.00,meteohub,2013-08-12 22:37:00,
2013-08-12 16:42:00,69.3,39.7,23.42,SE,135,5.0,8.0,34,0.00,,,0.00,meteohub,2013-08-12 22:42:00,
2013-08-12 16:48:00,69.3,38.8,23.42,SE,135,4.0,8.0,33,0.00,,,0.00,meteohub,2013-08-12 22:48:00,
2013-08-12 16:53:00,69.3,39.7,23.42,SE,135,8.0,8.0,34,0.00,,,0.00,meteohub,2013-08-12 22:53:00,
2013-08-12 16:58:00,69.3,39.7,23.42,SE,135,9.0,9.0,34,0.00,,,0.00,meteohub,2013-08-12 22:58:00,
2013-08-12 17:03:00,69.8,39.4,23.41,SE,135,4.0,9.0,33,0.00,,,0.00,meteohub,2013-08-12 23:03:00,
2013-08-12 17:08:00,70.2,39.7,23.41,NE,45,6.0,9.0,33,0.00,,,0.00,meteohub,2013-08-12 23:08:00,
2013-08-12 17:13:00,70.2,38.8,23.41,East,90,4.0,9.0,32,0.00,,,0.00,meteohub,2013-08-12 23:13:00,
2013-08-12 17:18:00,70.2,39.7,23.41,SSE,158,5.0,9.0,33,0.00,,,0.00,meteohub,2013-08-12 23:18:00,
2013-08-12 17:23:00,70.5,39.2,23.40,SE,135,4.0,9.0,32,0.00,,,0.00,meteohub,2013-08-12 23:23:00,
2013-08-12 17:28:00,70.7,40.1,23.41,SE,135,8.0,8.0,33,0.00,,,0.00,meteohub,2013-08-12 23:28:00,
2013-08-12 17:33:00,70.3,39.9,23.41,South,180,5.0,8.0,33,0.00,,,0.00,meteohub,2013-08-12 23:33:00,
2013-08-12 17:38:00,69.8,39.4,23.41,South,180,8.0,8.0,33,0.00,,,0.00,meteohub,2013-08-12 23:38:00,
2013-08-12 17:44:00,69.4,40.6,23.41,SE,135,2.0,8.0,35,0.00,,,0.00,meteohub,2013-08-12 23:44:00,
2013-08-12 17:49:00,69.4,40.6,23.40,South,180,6.0,8.0,35,0.00,,,0.00,meteohub,2013-08-12 23:49:00,
2013-08-12 17:54:00,69.1,39.6,23.41,SE,135,4.0,8.0,34,0.00,,,0.00,meteohub,2013-08-12 23:54:00,
2013-08-12 17:59:00,68.9,39.4,23.41,SE,135,2.0,6.0,34,0.00,,,0.00,meteohub,2013-08-12 23:59:00,
2013-08-12 18:04:00,68.9,39.4,23.41,East,90,2.0,6.0,34,0.00,,,0.00,meteohub,2013-08-13 00:04:00,
2013-08-12 18:09:00,68.7,39.2,23.41,SE,135,2.0,5.0,34,0.00,,,0.00,meteohub,2013-08-13 00:09:00,
2013-08-12 18:14:00,68.7,38.5,23.41,SE,135,4.0,5.0,33,0.00,,,0.00,meteohub,2013-08-13 00:14:00,
2013-08-12 18:19:00,68.7,38.5,23.40,SE,135,4.0,5.0,33,0.00,,,0.00,meteohub,2013-08-13 00:19:00,
2013-08-12 18:24:00,68.5,38.3,23.41,South,180,2.0,5.0,33,0.00,,,0.00,meteohub,2013-08-13 00:24:00,
2013-08-12 18:29:00,68.5,38.3,23.41,SE,135,1.0,5.0,33,0.00,,,0.00,meteohub,2013-08-13 00:29:00,
2013-08-12 18:35:00,68.5,38.3,23.41,South,180,2.0,5.0,33,0.00,,,0.00,meteohub,2013-08-13 00:35:00,
2013-08-12 18:40:00,68.5,38.3,23.41,SE,135,0.0,4.0,33,0.00,,,0.00,meteohub,2013-08-13 00:40:00,
2013-08-12 18:45:00,68.4,38.1,23.41,SE,135,2.0,2.0,33,0.00,,,0.00,meteohub,2013-08-13 00:45:00,
2013-08-12 18:50:00,68.4,38.1,23.41,SE,135,1.0,2.0,33,0.00,,,0.00,meteohub,2013-08-13 00:50:00,
2013-08-12 18:55:00,68.4,38.1,23.41,SE,135,0.0,2.0,33,0.00,,,0.00,meteohub,2013-08-13 00:55:00,
2013-08-12 19:00:00,68.2,37.9,23.41,SE,135,3.0,3.0,33,0.00,,,0.00,meteohub,2013-08-13 01:00:00,
2013-08-12 19:05:00,68.0,37.8,23.40,SE,135,2.0,3.0,33,0.00,,,0.00,meteohub,2013-08-13 01:05:00,
2013-08-12 19:10:00,67.8,38.5,23.40,SE,135,3.0,3.0,34,0.00,,,0.00,meteohub,2013-08-13 01:10:00,
2013-08-12 19:15:00,67.6,38.3,23.41,SE,135,2.0,3.0,34,0.00,,,0.00,meteohub,2013-08-13 01:15:00,
2013-08-12 19:20:00,67.6,39.0,23.40,SE,135,0.0,3.0,35,0.00,,,0.00,meteohub,2013-08-13 01:20:00,
2013-08-12 19:26:00,67.5,39.6,23.40,East,90,1.0,3.0,36,0.00,,,0.00,meteohub,2013-08-13 01:26:00,
2013-08-12 19:31:00,67.3,37.9,23.40,NNW,338,1.0,2.0,34,0.00,,,0.00,meteohub,2013-08-13 01:31:00,
2013-08-12 19:36:00,67.3,37.9,23.40,SE,135,2.0,3.0,34,0.00,,,0.00,meteohub,2013-08-13 01:36:00,
2013-08-12 19:41:00,67.1,37.8,23.40,SE,135,2.0,3.0,34,0.00,,,0.00,meteohub,2013-08-13 01:41:00,
2013-08-12 19:46:00,66.9,37.6,23.40,SE,135,2.0,3.0,34,0.00,,,0.00,meteohub,2013-08-13 01:46:00,
2013-08-12 19:51:00,66.6,37.4,23.41,SE,135,1.0,2.0,34,0.00,,,0.00,meteohub,2013-08-13 01:51:00,
2013-08-12 19:56:00,66.6,37.4,23.41,South,180,1.0,2.0,34,0.00,,,0.00,meteohub,2013-08-13 01:56:00,
2013-08-12 20:01:00,66.6,38.1,23.41,South,180,0.0,2.0,35,0.00,,,0.00,meteohub,2013-08-13 02:01:00,
2013-08-12 20:06:00,66.4,38.7,23.41,NW,315,0.0,2.0,36,0.00,,,0.00,meteohub,2013-08-13 02:06:00,
2013-08-12 20:11:00,66.2,37.8,23.41,SW,225,2.0,2.0,35,0.00,,,0.00,meteohub,2013-08-13 02:11:00,
2013-08-12 20:17:00,66.0,37.6,23.41,SE,135,2.0,3.0,35,0.00,,,0.00,meteohub,2013-08-13 02:17:00,
2013-08-12 20:22:00,65.8,37.4,23.41,SE,135,1.0,3.0,35,0.00,,,0.00,meteohub,2013-08-13 02:22:00,
2013-08-12 20:27:00,65.5,37.8,23.41,SSE,158,2.0,3.0,36,0.00,,,0.00,meteohub,2013-08-13 02:27:00,
2013-08-12 20:32:00,65.5,37.8,23.41,SE,135,1.0,3.0,36,0.00,,,0.00,meteohub,2013-08-13 02:32:00,
2013-08-12 20:37:00,65.3,38.3,23.42,North,0,1.0,3.0,37,0.00,,,0.00,meteohub,2013-08-13 02:37:00,
2013-08-12 20:42:00,65.1,38.8,23.42,South,180,0.0,3.0,38,0.00,,,0.00,meteohub,2013-08-13 02:42:00,
2013-08-12 20:47:00,64.8,38.5,23.43,South,180,2.0,2.0,38,0.00,,,0.00,meteohub,2013-08-13 02:47:00,
2013-08-12 20:52:00,64.2,38.1,23.42,South,180,0.0,2.0,38,0.00,,,0.00,meteohub,2013-08-13 02:52:00,
2013-08-12 20:57:00,63.9,38.5,23.43,South,180,0.0,2.0,39,0.00,,,0.00,meteohub,2013-08-13 02:57:00,
2013-08-12 21:02:00,63.7,38.3,23.43,South,180,0.0,2.0,39,0.00,,,0.00,meteohub,2013-08-13 03:02:00,
2013-08-12 21:07:00,63.3,39.2,23.43,SE,135,2.0,2.0,41,0.00,,,0.00,meteohub,2013-08-13 03:07:00,
2013-08-12 21:12:00,63.0,38.8,23.43,SE,135,0.0,2.0,41,0.00,,,0.00,meteohub,2013-08-13 03:12:00,
2013-08-12 21:17:00,62.8,38.7,23.43,SE,135,1.0,2.0,41,0.00,,,0.00,meteohub,2013-08-13 03:17:00,
2013-08-12 21:22:00,62.6,39.2,23.42,SE,135,1.0,2.0,42,0.00,,,0.00,meteohub,2013-08-13 03:22:00,
2013-08-12 21:27:00,62.4,39.0,23.43,South,180,0.0,2.0,42,0.00,,,0.00,meteohub,2013-08-13 03:27:00,
2013-08-12 21:32:00,62.2,38.8,23.43,SE,135,0.0,2.0,42,0.00,,,0.00,meteohub,2013-08-13 03:32:00,
2013-08-12 21:34:00,62.2,38.8,23.43,SE,135,1.0,2.0,42,0.00,,,0.00,meteohub,2013-08-13 03:34:00,
2013-08-12 21:39:00,62.2,39.4,23.43,SE,135,0.0,2.0,43,0.00,,,0.00,meteohub,2013-08-13 03:39:00,
2013-08-12 21:44:00,62.2,38.8,23.43,SE,135,0.0,2.0,42,0.00,,,0.00,meteohub,2013-08-13 03:44:00,
2013-08-12 21:53:00,62.1,39.4,23.43,NE,45,0.0,2.0,43,0.00,,,0.00,meteohub,2013-08-13 03:53:00,
2013-08-12 21:58:00,62.1,39.9,23.42,SE,135,0.0,3.0,44,0.00,,,0.00,meteohub,2013-08-13 03:58:00,
2013-08-12 22:01:00,61.9,39.7,23.42,SE,135,1.0,3.0,44,0.00,,,0.00,meteohub,2013-08-13 04:01:00,
2013-08-12 22:02:00,61.9,39.7,23.42,SE,135,0.0,3.0,44,0.00,,,0.00,meteohub,2013-08-13 04:02:00,
2013-08-12 22:04:00,61.9,39.7,23.42,South,180,1.0,3.0,44,0.00,,,0.00,meteohub,2013-08-13 04:04:00,
2013-08-12 22:05:00,61.9,39.7,23.42,SE,135,4.0,4.0,44,0.00,,,0.00,meteohub,2013-08-13 04:05:00,
2013-08-12 22:10:00,62.2,39.4,23.42,SSE,158,4.0,4.0,43,0.00,,,0.00,meteohub,2013-08-13 04:10:00,
2013-08-12 22:15:00,63.0,38.8,23.42,East,90,2.0,4.0,41,0.00,,,0.00,meteohub,2013-08-13 04:15:00,
2013-08-12 22:20:00,63.0,38.8,23.42,East,90,2.0,4.0,41,0.00,,,0.00,meteohub,2013-08-13 04:20:00,
2013-08-12 22:25:00,63.5,39.4,23.42,East,90,2.0,4.0,41,0.00,,,0.00,meteohub,2013-08-13 04:25:00,
2013-08-12 22:30:00,63.3,39.2,23.43,SE,135,4.0,4.0,41,0.00,,,0.00,meteohub,2013-08-13 04:30:00,
2013-08-12 22:35:00,63.3,39.9,23.42,SE,135,4.0,4.0,42,0.00,,,0.00,meteohub,2013-08-13 04:35:00,
2013-08-12 22:40:00,63.1,39.7,23.41,ESE,113,4.0,4.0,42,0.00,,,0.00,meteohub,2013-08-13 04:40:00,
2013-08-12 22:45:00,63.0,40.1,23.42,West,270,2.0,4.0,43,0.00,,,0.00,meteohub,2013-08-13 04:45:00,
2013-08-12 22:50:00,62.8,40.5,23.42,North,0,1.0,4.0,44,0.00,,,0.00,meteohub,2013-08-13 04:50:00,
2013-08-12 22:56:00,62.6,40.5,23.42,West,270,0.0,4.0,44,0.00,,,0.00,meteohub,2013-08-13 04:56:00,
2013-08-12 23:01:00,62.6,40.5,23.42,SE,135,2.0,3.0,44,0.00,,,0.00,meteohub,2013-08-13 05:01:00,
2013-08-12 23:06:00,62.4,41.4,23.42,SE,135,2.0,3.0,46,0.00,,,0.00,meteohub,2013-08-13 05:06:00,
2013-08-12 23:11:00,61.9,40.8,23.42,North,0,0.0,3.0,46,0.00,,,0.00,meteohub,2013-08-13 05:11:00,
2013-08-12 23:16:00,61.2,40.3,23.42,SE,135,2.0,3.0,46,0.00,,,0.00,meteohub,2013-08-13 05:16:00,
2013-08-12 23:21:00,60.6,40.8,23.42,SE,135,2.0,2.0,48,0.00,,,0.00,meteohub,2013-08-13 05:21:00,
2013-08-12 23:26:00,60.6,40.8,23.42,SE,135,0.0,2.0,48,0.00,,,0.00,meteohub,2013-08-13 05:26:00,
2013-08-12 23:31:00,60.6,40.8,23.42,South,180,0.0,2.0,48,0.00,,,0.00,meteohub,2013-08-13 05:31:00,
2013-08-12 23:36:00,60.1,41.4,23.42,South,180,0.0,2.0,50,0.00,,,0.00,meteohub,2013-08-13 05:36:00,
2013-08-12 23:41:00,59.5,41.4,23.42,South,180,0.0,2.0,51,0.00,,,0.00,meteohub,2013-08-13 05:41:00,
2013-08-12 23:46:00,58.8,41.2,23.42,South,180,0.0,1.0,52,0.00,,,0.00,meteohub,2013-08-13 05:46:00,
2013-08-12 23:52:00,57.7,40.6,23.42,South,180,0.0,1.0,53,0.00,,,0.00,meteohub,2013-08-13 05:52:00,
2013-08-12 23:57:00,57.2,40.3,23.42,SE,135,1.0,1.0,53,0.00,,,0.00,meteohub,2013-08-13 05:57:00,